Other Public Products
Issued by NWS Grand Forks, ND

Home | Current Version | Previous Version | Text Only | Print | Product List | Glossary Off
Versions: 1 2 3 4 5 6 7 8 9 10 11 12 13 14 15 16 17 18 19 20 21 22 23 24 25 26 27 28 29 30 31 32 33 34 35 36 37 38 39 40 41 42 43 44 45 46 47 48 49 50

000
FPUS83 KFGF 221731
OPUFGF
PRAIRIE TO PINES WEATHER ROUNDUP
NATIONAL WEATHER SERVICE EASTERN NORTH DAKOTA/GRAND FORKS ND
1100 AM CST MON DEC 22 2014

 **SATELLITE DATA USED TO AUGMENT SKY COVER AT AUTOMATED STATIONS**
 *****  WEATHER ACROSS EASTERN NORTH DAKOTA  *****

CITY           SKY/WX    TMP DP  RH WIND       PRES   REMARKS
GRAND FORKS    DRIZZLE   36  35  96 E9        29.54S FOG
GRAND FORKS AF NOT AVBL
GRAND CITY NWS NOT AVBL
BUXTON           N/A     36  36  99 E6          N/A
DEVILS LAKE    CLOUDY   N/A N/A N/A NE7       29.50F
FARGO          LGT RAIN  38  37  97 E6        29.50F FOG
WAHPETON ARPT  CLOUDY    36  34  93 SE10G16   29.50S
$$

 *****  WEATHER ACROSS CENTRAL AND WESTERN NORTH DAKOTA  *****

CITY           SKY/WX    TMP DP  RH WIND       PRES   REMARKS
JAMESTOWN      FOG       33  32  96 NE8       29.46S VSB<1/4
BISMARCK       CLOUDY    29  28  96 N8        29.50S WCI  21
MINOT          CLOUDY    29  26  89 N7        29.54R FOG     WCI  22
MINOT AFB      NOT AVBL
GARRISON         N/A     29  28  96 NE7       29.52R WCI  22
WILLISTON      CLOUDY    26  23  88 N17G26    29.60R WCI  13
DICKINSON      SNOW      26  23  88 NW20      29.50R VSB 1/2 WCI  12
HETTINGER      LGT SNOW  30  25  81 NW23G32   29.51S WCI  17
$$

 *****  OTHER OBSERVATIONS NORTHEAST NORTH DAKOTA  *****

CITY           SKY/WX    TMP DP  RH WIND       PRES   REMARKS
WALHALLA       MIX PCPN  32  32 100 E5        29.59S VSB 1
LANGDON        FOG       32  32 100 E10       29.54S VSB 1/4 WCI  24
CAVALIER       FOG       32  32 100 NE6         N/A  VSB 1
GRAFTON        NOT AVBL
CANDO          CLOUDY    32  32 100 NE5       29.55R FOG
FORT TOTTEN      N/A     31  31 100 CALM      29.95S
ROLLA          MIX PCPN  28  28 100 NE8       29.56S WCI  20
RUGBY          PTSUNNY   30  30 100 NE8       29.54S FOG     WCI  23
 ***** THE ABOVE OBSERVATIONS ARE NON NWS ARE NOT QUALITY
        CONTROLLED AND MAY MIS-REPORT RAIN FOR SNOW...
$$

 *****  OTHER OBSERVATIONS SOUTHEAST NORTH DAKOTA *****

CITY           SKY/WX    TMP DP  RH WIND       PRES   REMARKS
COOPERSTOWN    NOT AVBL
VALLEY CITY    LGT RAIN  32  32 100 E8        29.47F VSB<1/4 WCI  25
OAKES          FOG       36  36 100 E8        29.44F VSB 1/2
GWINNER        CLOUDY    37  37 100 E10       29.46F
BUFFALO        NOT AVBL
WYNDMERE         N/A     37  39 100 SE8         N/A
 ***** THE ABOVE OBSERVATIONS ARE NON NWS ARE NOT QUALITY
       CONTROLLED AND MAY MIS-REPORT RAIN FOR SNOW...
$$

  *****  WEATHER ACROSS NORTHERN MINNESOTA  *****

CITY           SKY/WX    TMP DP  RH WIND       PRES   REMARKS
FLAG ISLAND    CLOUDY    34  32  93 E9        29.62F
WARROAD        CLOUDY    34  30  86 E8        29.61F FOG
ROSEAU         CLOUDY    36  30  80 E7        29.60S FOG
HALLOCK        PTSUNNY   36  34  93 E9        29.58S FOG
THF RVR FALLS  CLOUDY    36  34  93 E12       29.55F
HALSTAD          N/A     37  36  95 SE10        N/A
FOSSTON        DRIZZLE   34  34 100 E8        29.55F
BAUDETTE       CLOUDY    34  33  96 SE8       29.61F
WASKISH        CLOUDY    36  36 100 CALM      29.61F
CROOKSTON      MIX PCPN  36  36 100 SE10      29.55S
$$
  *****  WEATHER ACROSS CENTRAL AND WEST MINNESOTA  *****

CITY           SKY/WX    TMP DP  RH WIND       PRES   REMARKS
BEMIDJI        CLOUDY    34  34  99 E9        29.57F FOG
PARK RAPIDS    CLOUDY    36  35  96 SE14      29.55F FOG
WADENA         CLOUDY    36  34  93 SE14      29.54F FOG
DETROIT LAKES  DRIZZLE   36  36 100 SE12      29.53F
MOORHEAD       RAIN      39  39 100 SE7       29.51F
FERGUS FALLS   CLOUDY    37  37 100 SE13      29.53F
ELBOW LAKE     LGT RAIN  37  37  99 SE12G17   29.50F
MORRIS MN      DRIZZLE   37  37 100 SE14G20   29.49F
STAPLES        DRIZZLE   36  36 100 SE7       29.57F
WHEATON        CLOUDY    36  36 100 SE14      29.49F FOG
$$
  *****  WEATHER ELSEWHERE ACROSS MINNESOTA  *****

CITY           SKY/WX    TMP DP  RH WIND       PRES   REMARKS
DULUTH         LGT SNOW  33  32  96 SE10      29.67F VSB 3/4 WCI  25
INTRNTL FALLS  LGT RAIN  33  32  96 SE7       29.65F FOG
ELY            CLOUDY    34  32  93 SE7       29.69F
CLOQUET        CLOUDY    34  34 100 E7        29.67F FOG
BRAINERD       CLOUDY    35  35 100 SE8       29.61S FOG
HIBBING        LGT SNOW  34  32  92 SE10      29.65F FOG
ALEXANDRIA     CLOUDY    36  35  96 SE13      29.53F FOG
SAINT CLOUD    LGT RAIN  38  34  85 SE15      29.60F FOG
MINNEAPOLIS    LGT RAIN  36  33  89 SE14      29.65F FOG
$$

  *****  WEATHER ACROSS SOUTH DAKOTA  *****

CITY           SKY/WX    TMP DP  RH WIND       PRES   REMARKS
SIOUX FALLS    LGT RAIN  40  39  97 SW3       29.44F FOG
BROOKINGS      NOT AVBL
WATERTOWN      CLOUDY    38  37  97 SE10      29.41F
HURON          CLOUDY    32  29  88 NW6       29.44S
SISSETON         N/A     36  36 100 S10       29.45F
ABERDEEN       LGT SNOW  33  32  96 E5        29.43F FOG
MITCHELL       LGT RAIN  36  35  96 W5        29.45F FOG
PIERRE         LGT RAIN  36  33  89 NW18      29.46S
MOBRIDGE       CLOUDY    33  31  92 N10       29.42S FOG     WCI  25
RAPID CITY     PTSUNNY   42  21  43 NW29G47   29.53F
$$

  *****  SOME WEATHER IN NEARBY STATES *****

CITY           SKY/WX    TMP DP  RH WIND       PRES   REMARKS
GLASGOW MT     CLOUDY    30  25  81 NW18      29.69S WCI  18
GREAT FALLS MT CLOUDY    35  25  66 W13       29.83R
CHEYENNE WY    CLOUDY    30  18  60 NW17G29   29.69S WCI  18
SCOTTSBLUFF NE MOSUNNY   35  25  66 NW9       29.68F
OMAHA NE       LGT RAIN  42  41  96 SE13      29.50F FOG
DES MOINES IA  LGT RAIN  41  37  86 SE13      29.59F FOG
DAVENPORT IA   LGT RAIN  36  33  89 E14       29.68F FOG
CHICAGO IL     LGT RAIN  35  30  82 SE9       29.83F
EAU CLAIRE WI  CLOUDY    36  32  85 E7        29.72F FOG
LA CROSSE WI   CLOUDY    40  32  73 SE8       29.73F
$$

  *****  SOME NATIONAL WEATHER *****

CITY           SKY/WX    TMP DP  RH WIND       PRES   REMARKS
LA GUARDIA NY  CLOUDY    41  36  82 NE17      30.27F
RALEIGH NC     DRIZZLE   38  35  89 N8        30.13F FOG
ATLANTA GA     DRZL/FOG  46  44  93 E10       30.00F VSB 1/2
NEW ORLEANS LA CLOUDY    70  65  84 S15       29.80F
OKLAHOMA CITY  CLOUDY    52  43  71 NW17      29.62S
ALBUQUERQUE NM MOSUNNY   49  33  54 S8        29.90F
SALT LAKE CITY LGT RAIN  40  37  89 E5        30.00S
LOS ANGELES CA MOSUNNY   58  50  75 SE5       30.06R
BOISE ID       CLOUDY    40  38  93 NW6       30.14R
SEATTLE WA     MOCLDY    46  40  79 SE9       30.34R
$$

*** WEATHER ACROSS MANITOBA...SASKATCHEWAN AND ONTARIO ***
                ***ONTARIO***

CITY           SKY/WX    TMP DP  RH WIND       PRES   REMARKS
GERALDTON      DRZL/FOG  34  34 100 S5        29.84  VSB 1/4
THUNDER BAY    LGT RAIN  36  34  93 E5        29.81F FOG
SIOUX LOOKOUT  DRZL/FOG  32  32 100 SE6       29.72S VSB 3/4
TORONTO        CLOUDY    34  25  69 E9        30.14
BIG TROUT LK   LGT SNOW  28  28 100 S3        29.77F
PICKLE LAKE    LGT SNOW  32  30  93 SE3       29.75
DRYDEN         LGT RAIN  34  32  93 E7        29.68S
KENORA         LGT SNOW  32  32 100 E7        29.65F VSB 1
$$
                *** MANITOBA***

CITY           SKY/WX    TMP DP  RH WIND       PRES   REMARKS
BRANDON        FRZ DRZL  30  28  93 NE8       29.61  FOG     WCI  23
DAUPHIN        SNOW      28  28 100 NE8       29.68R VSB 3/8 WCI  20
ISLAND LAKE    FLURRIES N/A N/A N/A NE2         N/A
PILOT MOUND      N/A     34  30  86 NE7         N/A
THE PAS        LGT SNOW  25  25 100 NE3       29.78  FOG
THOMPSON       FRZ DRZL  19  18  93 NE8       29.85  WCI   9
WINNIPEG       CLOUDY    34  32  93 E7        29.64S
LYNN LAKE      FLURRIES  10   9  92 NE5       29.86R WCI   2
CHURCHILL      FLURRIES  18  18 100 N13G18    29.92  WCI   4
GILLAM         FRZ DRZL  16  14  93 NE9       29.88S WCI   4
$$
                ***SASKATCHEWAN***

CITY           SKY/WX    TMP DP  RH WIND       PRES   REMARKS
ESTEVAN        FOG       28  28 100 N7        29.59R VSB 1   WCI  21
KINDERSLEY     CLOUDY    23  19  86 NW10      29.76  WCI  12
LLOYDMINSTER   CLOUDY    21  19  93 NW6       29.76  FOG     WCI  14
PRINCE ALBERT  CLOUDY    21  21 100 N7        29.77R WCI  13
REGINA         CLOUDY    25  23  93 N10       29.67  FOG     WCI  15
YORKTON        CLOUDY    25  25 100 NE9       29.67R WCI  15



USA.gov is the U.S. government's official web portal to all federal, state and local government web resources and services.